Location: Unspecified
(49.9820°N, 20.4363°E)
Time: 03:48:46
(UTC+02:00)

Vanguard 3 - Pass Details

Date: 15 May 2026
Orbit: 507 x 3204 km, 33.3° (Epoch: 6 June)

Event Time Altitude Azimuth Distance (km) Brightness Sun altitude
Rises 12:16:51 0° 199° (SSW) 6,384 12.1 58.7°
Reaches altitude 10° 12:22:07 10° 187° (S) 5,695 12.1 58.8°
Maximum altitude 12:34:54 24° 142° (SE) 4,988 12.0 58.9°
Drops below altitude 10° 12:48:06 10° 98° (E) 5,954 11.7 58.8°
Sets 12:53:42 0° 87° (E) 6,733 11.8 58.7°
